Tiempo atmosférico en la estación meteorológica de El Pinar, Depósito, Santa Cruz de Tenerife (948 m.)



Fecha
DESCASC
Temp. máxima en grados centígrados (hora)
DESCASC
Temp. mínima en grados centígrados (hora)
DESCASC
Temp. media en grados centígrados
DESCASC
Racha de viento máxima en m/sg (hora)
DESCASC
Velocidad máxima media en intervalos de 10 minutos(hora)
DESCASC
Precipitaciones diarias en mm
DESCASC
Precipitaciones de 00:00 a 06:00 en mm
DESCASC
Precipitaciones de 06:00 a 12:00 en mm
DESCASC
Precipitaciones de 12:00 a 18:00 en mm
DESCASC
Precipitaciones de 18:00 a 24:00 en mm
DESCASC
17-10-2019 18.2 (12:20) 10.4 (23:59) 14.3 7.22 (14:50) 3.33 (13:50) 0 0 0 0 0
16-10-2019 16.7 (12:20) 11.5 (03:40) 14.1 8.33 (13:20) 3.33 (13:20) 0.8 0 0 0.8 0
15-10-2019 17.3 (17:50) 11.3 (08:10) 14.3 6.39 (10:40) 3.06 (10:50) 0.2 0 0 0.2 0
14-10-2019 18.3 (16:50) 13.6 (23:50) 15.9 7.22 (16:20) 3.06 (15:10) 2.8 1 1.6 0.2 0
13-10-2019 19.9 (16:50) 10.2 (00:00) 15 6.67 (17:30) 3.33 (17:10) 0 0 0 0 0
12-10-2019 18.3 (14:30) 10.5 (00:00) 14.4 5.28 (12:00) 2.78 (13:00) 0 0 0 0 0
10-10-2019 19.7 (11:10) 12.4 (00:00) 16.1 9.44 (12:00) 3.89 (12:20) 0 0 0 0 0
09-10-2019 24.6 (11:50) 13.4 (00:00) 19 5.28 (18:10) 3.06 (18:00) 0 0 0 0 0
08-10-2019 28 (11:20) 17.5 (00:00) 22.8 5.83 (13:40) 3.06 (13:40) 0 0 0 0 0
07-10-2019 25.9 (18:20) 14.9 (00:00) 20.4 5.56 (11:10) 2.78 (12:20) 0 0 0 0 0
06-10-2019 26.7 (15:50) 16.4 (00:00) 21.6 10.83 (03:20) 4.44 (09:00) 0 0 0 0 0
05-10-2019 26.9 (13:20) 18.4 (20:30) 22.6 9.72 (02:10) 4.17 (02:00) 0 0 0 0 0
04-10-2019 30.8 (16:10) 23.5 (00:00) 27.1 9.44 (04:20) 3.89 (04:10) 0 0 0 0 0
03-10-2019 33.4 (15:00) 22.8 (00:00) 28.1 8.61 (13:40) 3.61 (13:40) 0 0 0 0 0
02-10-2019 32.1 (15:00) 22.8 (00:00) 27.4 7.5 (14:40) 3.61 (14:10) 0 0 0 0 0
01-10-2019 31.6 (17:20) 21.8 (00:00) 26.7 7.22 (14:50) 3.89 (15:10) 0 0 0 0 0
30-09-2019 32.9 (15:00) 20.2 (00:00) 26.6 7.5 (21:40) 3.61 (21:40) 0 0 0 0 0
29-09-2019 30.8 (16:50) 17.7 (00:00) 24.3 6.11 (16:50) 2.78 (20:50) 0 0 0 0 0
28-09-2019 22.7 (11:40) 15.1 (00:00) 18.9 5.83 (12:20) 3.33 (12:40) 0 0 0 0 0
27-09-2019 23.4 (15:30) 14 (00:00) 18.7 5.83 (12:50) 3.33 (12:40) 0 0 0 0 0
26-09-2019 22.7 (13:30) 14.2 (00:00) 18.5 6.39 (16:20) 3.33 (16:20) 0 0 0 0 0
25-09-2019 23.9 (17:10) 13.1 (00:00) 18.5 6.67 (04:40) 3.61 (17:20) 0 0 0 0 0
24-09-2019 22.1 (14:10) 11.9 (00:00) 17 8.61 (13:10) 3.89 (13:10) 0 0 0 0 0
23-09-2019 22.3 (14:40) 14.3 (00:00) 18.3 6.67 (09:00) 3.33 (21:10) 0.4 0.4 0 0 0
22-09-2019 23.2 (15:10) 14.8 (00:00) 19 6.11 (19:30) 3.89 (12:20) 0 0 0 0 0
21-09-2019 22.3 (14:40) 12.4 (00:00) 17.3 6.11 (14:50) 3.33 (15:00) 0 0 0 0 0
20-09-2019 22.8 (13:20) 13.6 (00:00) 18.2 7.22 (02:10) 3.33 (13:30) 0 0 0 0 0

Gráficas

Temp. máximas Temp. mínimas Temp. medias Precipitaciones Rachas de viento máximas Velocidades máximas media en intervalos de 10 minutos

Datos horarios

Fecha y hora oficial Temperatura (ºC) Velocidad del viento (km/h) Dirección del viento Racha (km/h) Dirección de racha Precipitación (mm) Presión (hPa) Tendencia (hPa) Humedad (%)
2019-10-19 23:00:00 13.9 5 Noroeste 15 Noroeste 0 -- -- 84
2019-10-19 22:00:00 13.8 4 Nordeste 7 Este 0 -- -- 81
2019-10-19 21:00:00 15.2 5 Norte 24 Noroeste 0 -- -- 81
2019-10-19 20:00:00 15.8 7 Norte 18 Noroeste 0 -- -- 79
2019-10-19 19:00:00 18 5 Este 14 Sur 0 -- -- 78
2019-10-19 18:00:00 19.8 5 Sur 14 Sur 0 -- -- 74
2019-10-19 17:00:00 20.4 9 Sudeste 20 Oeste 0 -- -- 64
2019-10-19 16:00:00 19.8 5 Sudeste 18 Sudeste 0 -- -- 67
2019-10-19 15:00:00 20 8 Sur 21 Sur 0 -- -- 71
2019-10-19 14:00:00 19.2 10 Sudeste 23 Sudeste 0 -- -- 72
2019-10-19 13:00:00 19 9 Sudeste 19 Sudeste 0 -- -- 74
2019-10-19 12:00:00 18.9 10 Sudeste 18 Sudeste 0 -- -- 73
2019-10-19 11:00:00 18.3 6 Sur 16 Sur 0 -- -- 76
2019-10-19 10:00:00 16.3 5 Sudeste 10 Sudeste 0 -- -- 85
2019-10-19 09:00:00 12.7 3 Nordeste 12 Norte 0 -- -- 94
2019-10-19 08:00:00 11.2 4 Norte 14 Noroeste 0 -- -- 94
2019-10-19 07:00:00 12 7 Noroeste 18 Noroeste 0 -- -- 100
2019-10-19 06:00:00 10.8 2 Noroeste 6 Norte 0 -- -- 98
2019-10-19 05:00:00 11 4 Noroeste 8 Noroeste 0 -- -- 97
2019-10-19 04:00:00 10.6 3 Norte 9 Noroeste 0 -- -- 93
2019-10-19 03:00:00 10.5 4 Norte 12 Oeste 0 -- -- 92
2019-10-19 02:00:00 10.9 4 Norte 9 Oeste 0 -- -- 93
2019-10-19 01:00:00 10.8 2 Norte 12 Noroeste 0 -- -- 93
2019-10-19 00:00:00 10.2 6 Oeste 10 Oeste 0 -- -- 91
2019-10-18 23:00:00 10.5 5 Noroeste 8 Noroeste 0 -- -- 86
2019-10-18 22:00:00 12.3 5 Noroeste 8 Noroeste 0 -- -- 89
2019-10-18 21:00:00 13.8 4 Noroeste 8 Oeste 0 -- -- 89
2019-10-18 20:00:00 15.6 3 Oeste 12 Sur 0 -- -- 86
2019-10-18 19:00:00 17.5 6 Sur 15 Sur 0 -- -- 82
2019-10-18 18:00:00 19 6 Sur 14 Sudeste 0 -- -- 73
2019-10-18 17:00:00 18.4 8 Sudeste 17 Sur 0 -- -- 74
2019-10-18 16:00:00 18.5 9 Sur 19 Sudeste 0 -- -- 77
2019-10-18 15:00:00 17.5 8 Sudeste 20 Sudeste 0 -- -- 82
2019-10-18 14:00:00 17.4 9 Este 21 Este 0 -- -- 78
2019-10-18 13:00:00 18.2 10 Sudeste 21 Sudeste 0 -- -- 73
2019-10-18 12:00:00 17.3 9 Sudeste 16 Sudeste 0 -- -- 78
2019-10-18 11:00:00 17 8 Sudeste 15 Sudeste 0 -- -- 82
2019-10-18 10:00:00 15 4 Sudeste 8 Sur 0 -- -- 82
2019-10-18 09:00:00 10.7 3 Norte 7 Noroeste 0 -- -- 80
2019-10-18 08:00:00 9.3 5 Norte 8 Norte 0 -- -- 78
2019-10-18 07:00:00 9.7 5 Norte 6 Noroeste 0 -- -- 72
2019-10-18 06:00:00 10.2 3 Noroeste 8 Noroeste 0 -- -- 71
2019-10-18 05:00:00 10.5 4 Norte 8 Norte 0 -- -- 70
2019-10-18 04:00:00 10.6 4 Noroeste 8 Norte 0 -- -- 62
2019-10-18 03:00:00 10.9 5 Noroeste 8 Norte 0 -- -- 61
2019-10-18 02:00:00 10.8 3 Noroeste 8 Noroeste 0 -- -- 66
2019-10-18 01:00:00 10.4 4 Norte 8 Norte 0 -- -- 67
2019-10-18 00:00:00 10.4 4 Noroeste 8 Noroeste 0 -- -- 67
2019-10-17 23:00:00 11.4 6 Oeste 10 Oeste 0 -- -- 91
2019-10-17 22:00:00 10.9 3 Noroeste 7 Norte 0 -- -- 77
2019-10-17 21:00:00 13.2 2 Norte 10 Este 0 -- -- 93
2019-10-17 20:00:00 14.2 6 Este 13 Nordeste 0 -- -- 95
2019-10-17 19:00:00 14.7 2 Este 13 Sudeste 0 -- -- 94
2019-10-17 18:00:00 14.7 3 Este 15 Este 0 -- -- 95
2019-10-17 17:00:00 15 6 Nordeste 15 Sudeste 0 -- -- 94
2019-10-17 16:00:00 15.2 10 Sudeste 24 Sudeste 0 -- -- 94
2019-10-17 15:00:00 16.3 11 Sudeste 26 Sudeste 0 -- -- 85
2019-10-17 14:00:00 17.7 9 Este 22 Sudeste 0 -- -- 78
2019-10-17 13:00:00 17.8 10 Sudeste 22 Este 0 -- -- 78
2019-10-17 12:00:00 17.5 10 Sudeste 21 Sudeste 0 -- -- 81
2019-10-17 11:00:00 17.3 6 Sudeste 17 Sudeste 0 -- -- 82
2019-10-17 10:00:00 16.3 5 Sudeste 12 Sudeste 0 -- -- 87
2019-10-17 09:00:00 14.1 3 Sudeste 8 Nordeste 0 -- -- 98
2019-10-17 08:00:00 14 4 Este 10 Este 0 -- -- 96
2019-10-17 07:00:00 13.4 3 Nordeste 18 Norte 0 -- -- 89
2019-10-17 06:00:00 12.8 6 Norte 18 Norte 0 -- -- 91
2019-10-17 05:00:00 12 6 Norte 16 Norte 0 -- -- 95
2019-10-17 04:00:00 12.8 5 Norte 12 Norte 0 -- -- 97
2019-10-17 03:00:00 13.6 2 Norte 13 Este 0 -- -- 98
2019-10-17 02:00:00 13.9 5 Este 14 Este 0 -- -- 98
2019-10-17 01:00:00 13.6 3 Norte 12 Norte 0 -- -- 99
2019-10-17 00:00:00 13.9 3 Noroeste 16 Este 0 -- -- 100
2019-10-16 23:00:00 14.4 6 Este 13 Este 0 -- -- 100
2019-10-16 22:00:00 14.5 6 Nordeste 18 Nordeste 0 -- -- 100
2019-10-16 21:00:00 14.5 8 Este 19 Sudeste 0 -- -- 100
2019-10-16 20:00:00 14.7 6 Sudeste 10 Sudeste 0 -- -- 100
2019-10-16 19:00:00 14.9 3 Este 10 Este 0 -- -- 100
2019-10-16 18:00:00 15.1 3 Este 10 Este 0 -- -- 100
2019-10-16 17:00:00 15 7 Este 15 Sudeste 0 -- -- 100
2019-10-16 16:00:00 15 5 Este 15 Sudeste 0.2 -- -- 100
2019-10-16 15:00:00 14.6 9 Sudeste 17 Sudeste 0.4 -- -- 99
2019-10-16 14:00:00 15 4 Nordeste 30 Sudeste 0.2 -- -- 99
2019-10-16 13:00:00 15.8 10 Este 22 Sudeste 0 -- -- 90
2019-10-16 12:00:00 15.5 8 Este 18 Este 0 -- -- 89
2019-10-16 11:00:00 15.8 5 Este 15 Norte 0 -- -- 86
2019-10-16 10:00:00 15.2 6 Sudeste 12 Sudeste 0 -- -- 91
2019-10-16 09:00:00 13.8 5 Norte 12 Norte 0 -- -- 92
2019-10-16 08:00:00 13.7 5 Este 13 Nordeste 0 -- -- 95
2019-10-16 07:00:00 13.3 5 Nordeste 14 Norte 0 -- -- 97
2019-10-16 06:00:00 11.9 5 Norte 15 Norte 0 -- -- 95
2019-10-16 05:00:00 12.7 6 Norte 19 Norte 0 -- -- 94
2019-10-16 04:00:00 12 9 Norte 22 Norte 0 -- -- 96
2019-10-16 03:00:00 12 4 Norte 12 Noroeste 0 -- -- 96
2019-10-16 02:00:00 12.4 4 Norte 9 Norte 0 -- -- 96
2019-10-16 01:00:00 13.4 3 Norte 14 Norte 0 -- -- 94
2019-10-16 00:00:00 12.9 4 Nordeste 18 Norte 0 -- -- 90
2019-10-15 23:00:00 13.2 4 Nordeste 22 Norte 0 -- -- 94
2019-10-15 22:00:00 13.4 6 Norte 18 Nordeste 0 -- -- 92
2019-10-15 21:00:00 13.7 4 Norte 13 Norte 0 -- -- 94
2019-10-15 20:00:00 14.2 3 Oeste 9 Sudeste 0 -- -- 93
2019-10-15 19:00:00 15.4 5 Este 13 Sur 0 -- -- 92
2019-10-15 18:00:00 17.2 8 Sur 16 Sudeste 0 -- -- 85
2019-10-15 17:00:00 15.4 6 Sudeste 16 Sudeste 0 -- -- 96
2019-10-15 16:00:00 15.4 7 Este 13 Este 0 -- -- 99
2019-10-15 15:00:00 14.8 8 Sudeste 19 Sudeste 0 -- -- 100
2019-10-15 14:00:00 14.7 8 Sudeste 22 Sur 0.2 -- -- 99
2019-10-15 13:00:00 15 8 Sudeste 19 Sudeste 0 -- -- 98
2019-10-15 12:00:00 14.8 9 Sudeste 19 Sudeste 0 -- -- 97
2019-10-15 11:00:00 15 10 Sudeste 23 Sudeste 0 -- -- 94
2019-10-15 10:00:00 14.4 5 Norte 16 Norte 0 -- -- 90
2019-10-15 09:00:00 13.3 6 Norte 19 Norte 0 -- -- 89
2019-10-15 08:00:00 11.4 6 Norte 19 Norte 0 -- -- 93
2019-10-15 07:00:00 11.5 6 Norte 19 Norte 0 -- -- 94
2019-10-15 06:00:00 12 6 Norte 15 Norte 0 -- -- 93
2019-10-15 05:00:00 12.3 5 Norte 20 Norte 0 -- -- 93
2019-10-15 04:00:00 12.6 8 Norte 22 Norte 0 -- -- 91
2019-10-15 03:00:00 12.8 6 Norte 19 Nordeste 0 -- -- 92
2019-10-15 02:00:00 13.2 6 Norte 23 Norte 0 -- -- 93
2019-10-15 01:00:00 13.4 7 Norte 21 Norte 0 -- -- 93
2019-10-15 00:00:00 13.6 10 Norte 22 Noroeste 0 -- -- 88
2019-10-14 23:00:00 13.8 8 Norte 18 Noroeste 0 -- -- 82
2019-10-14 22:00:00 14.6 3 Sudoeste 21 Noroeste 0 -- -- 82
2019-10-14 21:00:00 14.7 3 Nordeste 21 Norte 0 -- -- 81
2019-10-14 20:00:00 14.9 4 Norte 17 Nordeste 0 -- -- 83
2019-10-14 19:00:00 15.8 6 Nordeste 21 Nordeste 0 -- -- 86
2019-10-14 18:00:00 17.3 5 Este 22 Norte 0 -- -- 84
2019-10-14 17:00:00 18.3 5 Nordeste 26 Norte 0 -- -- 77
2019-10-14 16:00:00 16.9 5 Nordeste 23 Sudeste 0 -- -- 90
2019-10-14 15:00:00 17.1 9 Nordeste 21 Nordeste 0 -- -- 91
2019-10-14 14:00:00 16.1 6 Nordeste 22 Norte 0 -- -- 94
2019-10-14 13:00:00 15.8 7 Nordeste 20 Norte 0.2 -- -- 98
2019-10-14 12:00:00 15.6 6 Nordeste 17 Este 0 -- -- 99
2019-10-14 11:00:00 15.2 6 Este 18 Este 0 -- -- 100
2019-10-14 10:00:00 14.9 4 Este 16 Nordeste 0.2 -- -- 100
2019-10-14 09:00:00 14.8 6 Nordeste 17 Este 0.8 -- -- 100
2019-10-14 08:00:00 14.8 7 Este 20 Este 0.2 -- -- 100
2019-10-14 07:00:00 15 8 Nordeste 20 Norte 0.4 -- -- 99
2019-10-14 06:00:00 15 5 Este 15 Sudeste 1 -- -- 99
2019-10-14 05:00:00 15.2 5 Este 14 Este 0 -- -- 98
2019-10-14 04:00:00 14.8 0 Calma 10 Este 0 -- -- 95
2019-10-14 03:00:00 15.2 4 Sudeste 10 Sudeste 0 -- -- 96
2019-10-14 02:00:00 15.2 3 Nordeste 14 Este 0 -- -- 92
2019-10-14 01:00:00 15.4 3 Este 13 Este 0 -- -- 93
2019-10-14 00:00:00 15 3 Este 17 Oeste 0 -- -- 91
2019-10-13 23:00:00 13.4 4 Norte 8 Noroeste 0 -- -- 84
2019-10-13 22:00:00 14 0 Calma 10 Noroeste 0 -- -- 81
2019-10-13 21:00:00 14.4 2 Oeste 9 Este 0 -- -- 83
2019-10-13 20:00:00 15.7 5 Sudeste 22 Norte 0 -- -- 84
2019-10-13 19:00:00 17.9 8 Noroeste 21 Noroeste 0 -- -- 68
2019-10-13 18:00:00 18.4 5 Este 24 Este 0 -- -- 77
2019-10-13 17:00:00 19.8 9 Norte 22 Norte 0 -- -- 67
2019-10-13 16:00:00 18.6 9 Sudeste 18 Sudeste 0 -- -- 78
2019-10-13 15:00:00 17.7 7 Este 17 Sudeste 0 -- -- 82
2019-10-13 14:00:00 17.7 8 Este 18 Sudeste 0 -- -- 80
2019-10-13 13:00:00 18.2 8 Sudeste 18 Sudeste 0 -- -- 77
2019-10-13 12:00:00 17.4 8 Este 15 Este 0 -- -- 79
2019-10-13 11:00:00 17.2 8 Sudeste 13 Sur 0 -- -- 82
2019-10-13 10:00:00 17.1 6 Sur 9 Sudeste 0 -- -- 79
2019-10-13 09:00:00 11.6 3 Norte 10 Noroeste 0 -- -- 90
2019-10-13 08:00:00 10.5 5 Norte 8 Norte 0 -- -- 91
2019-10-13 07:00:00 11.8 6 Noroeste 12 Noroeste 0 -- -- 90
2019-10-13 06:00:00 13.3 6 Noroeste 9 Noroeste 0 -- -- 92
2019-10-13 05:00:00 12.5 3 Noroeste 6 Oeste 0 -- -- 85
2019-10-13 04:00:00 12.2 4 Noroeste 8 Noroeste 0 -- -- 85
2019-10-13 03:00:00 12.2 5 Noroeste 9 Oeste 0 -- -- 84
2019-10-13 02:00:00 11.8 5 Noroeste 9 Noroeste 0 -- -- 80
2019-10-13 01:00:00 10.9 6 Noroeste 10 Noroeste 0 -- -- 81
2019-10-13 00:00:00 11.1 4 Noroeste 11 Noroeste 0 -- -- 82
2019-10-12 23:00:00 10.6 4 Noroeste 9 Noroeste 0 -- -- 81
2019-10-12 22:00:00 11.1 3 Norte 9 Noroeste 0 -- -- 80
2019-10-12 21:00:00 14 5 Oeste 10 Oeste 0 -- -- 87
2019-10-12 20:00:00 15.1 3 Este 10 Este 0 -- -- 91
2019-10-12 19:00:00 15.8 5 Sudeste 13 Este 0 -- -- 89
2019-10-12 18:00:00 16.6 8 Este 14 Sudeste 0 -- -- 86
2019-10-12 17:00:00 17.6 8 Sudeste 15 Sudeste 0 -- -- 78
2019-10-12 16:00:00 17.6 9 Sudeste 17 Este 0 -- -- 74
2019-10-12 15:00:00 18.3 9 Sur 18 Este 0 -- -- 73
2019-10-12 14:00:00 17.6 10 Sudeste 19 Sudeste 0 -- -- 75
2019-10-12 13:00:00 17 10 Sudeste 15 Sudeste 0 -- -- 81
2019-10-12 12:00:00 16.8 10 Sudeste 19 Sudeste 0 -- -- 84
2019-10-12 11:00:00 15.2 9 Este 15 Este 0 -- -- 89
2019-10-12 10:00:00 14 3 Norte 11 Norte 0 -- -- 90
2019-10-12 09:00:00 12.2 6 Norte 12 Norte 0 -- -- 97
2019-10-12 08:00:00 11.3 4 Noroeste 10 Norte 0 -- -- 93
2019-10-12 07:00:00 11.1 6 Noroeste 13 Noroeste 0 -- -- 94
2019-10-12 06:00:00 10.8 6 Noroeste 10 Norte 0 -- -- 92
2019-10-12 05:00:00 11.6 4 Norte 13 Norte 0 -- -- 89
2019-10-12 04:00:00 13.3 4 Norte 12 Norte 0 -- -- 87
2019-10-12 03:00:00 14.6 5 Nordeste 14 Este 0 -- -- 89
2019-10-12 02:00:00 14.2 4 Nordeste 16 Este 0 -- -- 91
2019-10-12 01:00:00 12.5 3 Nordeste 9 Noroeste 0 -- -- 93
2019-10-12 00:00:00 12.7 5 Norte 10 Noroeste 0 -- -- 91
2019-10-11 23:00:00 13.6 3 Norte 13 Norte 0 -- -- 88
2019-10-11 22:00:00 14 4 Noroeste 13 Norte 0 -- -- 88
2019-10-11 21:00:00 13.8 3 Norte 8 Oeste 0 -- -- 85
2019-10-11 20:00:00 15.3 0 Calma 6 Norte 0 -- -- 82
2019-10-11 19:00:00 17.2 5 Noroeste 12 Norte 0 -- -- 75
2019-10-11 18:00:00 17.1 6 Sudeste 19 Noroeste 0 -- -- 83
2019-10-11 17:00:00 18 9 Sudeste 19 Sudeste 0 -- -- 77
2019-10-11 16:00:00 17.5 8 Sudeste 19 Sudeste 0 -- -- 80
2019-10-11 15:00:00 16.8 9 Sudeste 19 Sudeste 0 -- -- 85
2019-10-11 14:00:00 16.6 10 Este 21 Nordeste 0 -- -- 79
2019-10-11 13:00:00 17.4 5 Sudeste 15 Nordeste 0 -- -- 81
2019-10-11 12:00:00 16.9 6 Sudeste 18 Norte 0 -- -- 88
2019-10-11 11:00:00 16.7 6 Norte 23 Norte 0 -- -- 77
2019-10-11 10:00:00 16.1 5 Norte 17 Este 0 -- -- 75
2019-10-11 09:00:00 15.1 5 Norte 17 Sudoeste 0 -- -- 80
2019-10-11 08:00:00 13.7 3 Oeste 14 Sur 0 -- -- 82
2019-10-11 07:00:00 13.4 5 Norte 19 Norte 0 -- -- 85
2019-10-11 06:00:00 13 5 Norte 17 Norte 0 -- -- 88
2019-10-11 05:00:00 12.9 2 Oeste 13 Sur 0 -- -- 86
2019-10-11 04:00:00 12.5 5 Este 11 Nordeste 0 -- -- 87
2019-10-11 03:00:00 12.3 3 Nordeste 9 Nordeste 0 -- -- 86
2019-10-11 02:00:00 13.3 4 Norte 17 Norte 0 -- -- 85
2019-10-11 01:00:00 12.9 5 Norte 11 Norte 0 -- -- 87
2019-10-11 00:00:00 13.6 3 Nordeste 16 Norte 0 -- -- 84
2019-10-10 23:00:00 14.1 6 Norte 15 Norte 0 -- -- 83
2019-10-10 22:00:00 14.5 6 Norte 17 Norte 0 -- -- 83
2019-10-10 21:00:00 14 4 Norte 9 Nordeste 0 -- -- 81
2019-10-10 20:00:00 15.5 4 Norte 14 Este 0 -- -- 73
2019-10-10 19:00:00 16.9 5 Este 14 Sudeste 0 -- -- 75
2019-10-10 18:00:00 16.9 7 Este 14 Sudeste 0 -- -- 80
2019-10-10 17:00:00 18.2 9 Sudeste 18 Sudeste 0 -- -- 75
2019-10-10 16:00:00 19.1 10 Sudeste 18 Sudeste 0 -- -- 69
2019-10-10 15:00:00 18.7 10 Sudeste 23 Este 0 -- -- 70
2019-10-10 14:00:00 18 10 Este 26 Sudeste 0 -- -- 71
2019-10-10 13:00:00 19.4 9 Sudeste 32 Sudeste 0 -- -- 66
2019-10-10 12:00:00 19.3 12 Sudeste 34 Sudeste 0 -- -- 64
2019-10-10 11:00:00 19.4 5 Este 18 Norte 0 -- -- 66
2019-10-10 10:00:00 17.5 8 Este 19 Sudeste 0 -- -- 72
2019-10-10 09:00:00 15.5 5 Este 27 Nordeste 0 -- -- 80
2019-10-10 08:00:00 14.4 6 Nordeste 19 Nordeste 0 -- -- 85
2019-10-10 07:00:00 14.2 7 Nordeste 21 Norte 0 -- -- 87
2019-10-10 06:00:00 13.3 4 Nordeste 13 Nordeste 0 -- -- 83
2019-10-10 05:00:00 13.1 4 Nordeste 15 Noroeste 0 -- -- 74
2019-10-10 04:00:00 13.6 6 Norte 14 Norte 0 -- -- 66
2019-10-10 03:00:00 12.5 5 Norte 8 Norte 0 -- -- 42
2019-10-10 02:00:00 12.8 3 Norte 8 Noroeste 0 -- -- 45
2019-10-10 01:00:00 13.7 4 Norte 10 Noroeste 0 -- -- 50
2019-10-10 00:00:00 13.4 4 Nordeste 11 Este 0 -- -- 49
2019-10-09 23:00:00 14 2 Nordeste 8 Norte 0 -- -- 46
2019-10-09 22:00:00 14.4 3 Norte 10 Norte 0 -- -- 53
2019-10-09 21:00:00 14.7 5 Norte 10 Norte 0 -- -- 43
2019-10-09 20:00:00 17.5 0 Calma 12 Sudeste 0 -- -- 76
2019-10-09 19:00:00 19.1 4 Sur 19 Sur 0 -- -- 73
2019-10-09 18:00:00 20.6 11 Sur 18 Sur 0 -- -- 66
2019-10-09 17:00:00 21.5 5 Sur 16 Sudeste 0 -- -- 63
2019-10-09 16:00:00 21.1 9 Sudeste 17 Sur 0 -- -- 67
2019-10-09 15:00:00 21.6 10 Sudeste 17 Sur 0 -- -- 65
2019-10-09 14:00:00 22.7 10 Sudeste 16 Sudeste 0 -- -- 51
2019-10-09 13:00:00 23.5 8 Sudeste 16 Sudeste 0 -- -- 40
2019-10-09 12:00:00 24.3 9 Sudeste 16 Sudeste 0 -- -- 40
2019-10-09 11:00:00 24 6 Este 14 Sudeste 0 -- -- 20
2019-10-09 10:00:00 23.1 7 Este 17 Sudeste 0 -- -- 25
2019-10-09 09:00:00 17 4 Norte 9 Norte 0 -- -- 26
2019-10-09 08:00:00 14.9 7 Norte 9 Norte 0 -- -- 28
2019-10-09 07:00:00 15.3 5 Norte 9 Norte 0 -- -- 27
2019-10-09 06:00:00 15.5 6 Norte 9 Noroeste 0 -- -- 24
2019-10-09 05:00:00 16.2 5 Norte 9 Norte 0 -- -- 23
2019-10-09 04:00:00 16.7 6 Norte 9 Noroeste 0 -- -- 25
2019-10-09 03:00:00 17.1 6 Norte 8 Norte 0 -- -- 24
2019-10-09 02:00:00 17.4 5 Norte 10 Nordeste 0 -- -- 23
2019-10-09 01:00:00 17.5 6 Norte 9 Norte 0 -- -- 21
2019-10-09 00:00:00 17.5 8 Norte 9 Norte 0 -- -- 19
2019-10-08 23:00:00 17.7 6 Noroeste 11 Norte 0 -- -- 20
2019-10-08 22:00:00 18.1 7 Norte 9 Noroeste 0 -- -- 22
2019-10-08 21:00:00 17.9 4 Norte 8 Norte 0 -- -- 25
2019-10-08 20:00:00 18.9 3 Noroeste 7 Sur 0 -- -- 48
2019-10-08 19:00:00 20.5 4 Sur 10 Sur 0 -- -- 73
2019-10-08 18:00:00 20.6 4 Sur 10 Sudeste 0 -- -- 74
2019-10-08 17:00:00 19.8 8 Sudeste 14 Sudeste 0 -- -- 77
2019-10-08 16:00:00 18.9 8 Sudeste 15 Sudeste 0 -- -- 84
2019-10-08 15:00:00 19.8 8 Sudeste 17 Este 0 -- -- 80
2019-10-08 14:00:00 21.4 8 Este 21 Sudeste 0 -- -- 69
2019-10-08 13:00:00 26.7 8 Sur 13 Sudeste 0 -- -- 47
2019-10-08 12:00:00 27 8 Sur 14 Sudeste 0 -- -- 40
2019-10-08 11:00:00 27.1 7 Sudeste 12 Sur 0 -- -- 24
2019-10-08 10:00:00 26.3 7 Sur 11 Sur 0 -- -- 14
2019-10-08 09:00:00 21.2 0 Calma 6 Norte 0 -- -- 18
2019-10-08 08:00:00 19.7 3 Norte 6 Noroeste 0 -- -- 21
2019-10-08 07:00:00 22.7 2 Nordeste 14 Oeste 0 -- -- 18
2019-10-08 06:00:00 22.5 6 Oeste 16 Oeste 0 -- -- 17
2019-10-08 05:00:00 20.6 8 Oeste 13 Oeste 0 -- -- 18
2019-10-08 04:00:00 19.2 6 Oeste 9 Oeste 0 -- -- 17
2019-10-08 03:00:00 18.4 4 Norte 7 Norte 0 -- -- 18
2019-10-08 02:00:00 18.9 4 Norte 9 Norte 0 -- -- 18
2019-10-08 01:00:00 19.1 4 Noroeste 10 Oeste 0 -- -- 19
2019-10-08 00:00:00 19 5 Noroeste 12 Noroeste 0 -- -- 19
2019-10-07 23:00:00 19.2 4 Noroeste 8 Noroeste 0 -- -- 19
2019-10-07 22:00:00 19.1 5 Noroeste 11 Oeste 0 -- -- 20
2019-10-07 21:00:00 19.5 6 Noroeste 10 Oeste 0 -- -- 21
2019-10-07 20:00:00 21.2 5 Noroeste 9 Oeste 0 -- -- 24
2019-10-07 19:00:00 25.1 3 Sudoeste 12 Sur 0 -- -- 25
2019-10-07 18:00:00 25.4 4 Sur 13 Sudeste 0 -- -- 28
2019-10-07 17:00:00 24.7 7 Sur 15 Sur 0 -- -- 55
2019-10-07 16:00:00 25.2 5 Sudoeste 14 Sudeste 0 -- -- 41
2019-10-07 15:00:00 22.9 7 Sur 16 Sudoeste 0 -- -- 62
2019-10-07 14:00:00 22.4 8 Sudeste 16 Sudeste 0 -- -- 64
2019-10-07 13:00:00 19.3 10 Sudeste 19 Sudeste 0 -- -- 76
2019-10-07 12:00:00 23.3 8 Sudeste 20 Nordeste 0 -- -- 53
2019-10-07 11:00:00 23.5 5 Este 17 Este 0 -- -- 30
2019-10-07 10:00:00 21.2 6 Sudeste 11 Sudeste 0 -- -- 49
2019-10-07 09:00:00 17.5 3 Norte 9 Norte 0 -- -- 33
2019-10-07 08:00:00 14.9 4 Norte 10 Norte 0 -- -- 30
2019-10-07 07:00:00 15.8 5 Norte 9 Norte 0 -- -- 26
2019-10-07 06:00:00 16.3 8 Norte 9 Norte 0 -- -- 26
2019-10-07 05:00:00 16 6 Norte 10 Noroeste 0 -- -- 28
2019-10-07 04:00:00 15.4 4 Norte 9 Norte 0 -- -- 35
2019-10-07 03:00:00 16.3 5 Norte 10 Norte 0 -- -- 26
2019-10-07 02:00:00 16.7 8 Norte 10 Norte 0 -- -- 26
2019-10-07 01:00:00 17 9 Norte 10 Norte 0 -- -- 26
2019-10-07 00:00:00 16.8 7 Norte 11 Noroeste 0 -- -- 28
2019-10-06 23:00:00 16.4 4 Norte 8 Norte 0 -- -- 32
2019-10-06 22:00:00 17.4 6 Norte 15 Norte 0 -- -- 36
2019-10-06 21:00:00 17.9 4 Norte 16 Noroeste 0 -- -- 51
2019-10-06 20:00:00 19.5 3 Noroeste 8 Sudeste 0 -- -- 49
2019-10-06 19:00:00 21.6 2 Sudoeste 11 Sur 0 -- -- 67
2019-10-06 18:00:00 21.7 8 Sur 22 Sur 0 -- -- 68
2019-10-06 17:00:00 23.6 12 Sur 20 Sudoeste 0 -- -- 59
2019-10-06 16:00:00 25.9 13 Sur 21 Sudoeste 0 -- -- 44
2019-10-06 15:00:00 26.4 10 Este 21 Este 0 -- -- 23
2019-10-06 14:00:00 26.2 9 Este 19 Sudeste 0 -- -- 25
2019-10-06 13:00:00 25.9 8 Sudeste 16 Este 0 -- -- 33
2019-10-06 12:00:00 25.7 8 Este 15 Sudeste 0 -- -- 38
2019-10-06 11:00:00 24.6 6 Sudeste 15 Norte 0 -- -- 47
2019-10-06 10:00:00 22.1 10 Norte 28 Norte 0 -- -- 40
2019-10-06 09:00:00 17.9 16 Norte 31 Norte 0 -- -- 65
2019-10-06 08:00:00 17.4 7 Norte 15 Noroeste 0 -- -- 47
2019-10-06 07:00:00 18.8 5 Norte 28 Nordeste 0 -- -- 49
2019-10-06 06:00:00 19.3 9 Nordeste 24 Norte 0 -- -- 48
2019-10-06 05:00:00 18.3 5 Sudeste 23 Nordeste 0 -- -- 53
2019-10-06 04:00:00 18.3 9 Norte 39 Noroeste 0 -- -- 59
2019-10-06 03:00:00 17.1 10 Nordeste 31 Nordeste 0 -- -- 73
2019-10-06 02:00:00 18.7 13 Norte 29 Nordeste 0 -- -- 53
2019-10-06 01:00:00 18.7 6 Noroeste 27 Norte 0 -- -- 55
2019-10-06 00:00:00 18.8 9 Nordeste 35 Norte 0 -- -- 59
2019-10-05 23:00:00 19.6 8 Norte 21 Norte 0 -- -- 52
2019-10-05 22:00:00 19.6 7 Este 25 Norte 0 -- -- 56
2019-10-05 21:00:00 18.6 8 Nordeste 26 Norte 0 -- -- 63
2019-10-05 20:00:00 19.8 10 Este 29 Nordeste 0 -- -- 58
2019-10-05 19:00:00 22.5 11 Sudeste 23 Noroeste 0 -- -- 48
2019-10-05 18:00:00 24.5 8 Este 22 Sudeste 0 -- -- 44
2019-10-05 17:00:00 23.4 10 Sudeste 22 Sudeste 0 -- -- 52
2019-10-05 16:00:00 24.5 9 Este 22 Nordeste 0 -- -- 48
2019-10-05 15:00:00 24.8 12 Sudeste 26 Este 0 -- -- 52
2019-10-05 14:00:00 25.5 9 Este 25 Norte 0 -- -- 42
2019-10-05 13:00:00 26.1 12 Sudeste 20 Sudeste 0 -- -- 39
2019-10-05 12:00:00 25.5 11 Sudeste 18 Este 0 -- -- 51
2019-10-05 11:00:00 24.6 7 Sudeste 20 Este 0 -- -- 50
2019-10-05 10:00:00 24.6 8 Norte 23 Noroeste 0 -- -- 34
2019-10-05 09:00:00 22.5 4 Oeste 12 Norte 0 -- -- 32
2019-10-05 08:00:00 21.6 4 Norte 22 Sudoeste 0 -- -- 28
2019-10-05 07:00:00 22 11 Este 26 Nordeste 0 -- -- 28
2019-10-05 06:00:00 22.4 8 Norte 30 Norte 0 -- -- 27
2019-10-05 05:00:00 23 5 Norte 19 Noroeste 0 -- -- 19
2019-10-05 04:00:00 23.9 10 Este 32 Norte 0 -- -- 20
2019-10-05 03:00:00 23.4 12 Norte 35 Noroeste 0 -- -- 20
2019-10-05 02:00:00 23.4 15 Norte 33 Norte 0 -- -- 20
2019-10-05 01:00:00 23.8 14 Norte 28 Norte 0 -- -- 19
2019-10-05 00:00:00 23.8 10 Norte 24 Norte 0 -- -- 19
2019-10-04 23:00:00 23.6 8 Norte 28 Norte 0 -- -- 19
2019-10-04 22:00:00 23.8 9 Norte 27 Norte 0 -- -- 19
2019-10-04 21:00:00 24.3 11 Noroeste 28 Norte 0 -- -- 18
2019-10-04 20:00:00 25.2 8 Noroeste 26 Norte 0 -- -- 18
2019-10-04 19:00:00 28.1 8 Norte 26 Norte 0 -- -- 17
2019-10-04 18:00:00 29.3 13 Norte 30 Norte 0 -- -- 18
2019-10-04 17:00:00 30.7 8 Norte 32 Norte 0 -- -- 14
2019-10-04 16:00:00 30.5 11 Nordeste 24 Este 0 -- -- 14
2019-10-04 15:00:00 29.8 10 Este 24 Este 0 -- -- 21
2019-10-04 14:00:00 29.2 11 Este 27 Este 0 -- -- 22
2019-10-04 13:00:00 30.4 11 Nordeste 30 Norte 0 -- -- 16
2019-10-04 12:00:00 29.8 10 Nordeste 28 Nordeste 0 -- -- 17
2019-10-04 11:00:00 29.5 12 Este 30 Nordeste 0 -- -- 15
2019-10-04 10:00:00 29 9 Norte 26 Norte 0 -- -- 14
2019-10-04 09:00:00 25.4 7 Norte 23 Noroeste 0 -- -- 17
2019-10-04 08:00:00 23.8 8 Norte 27 Nordeste 0 -- -- 18
2019-10-04 07:00:00 24.1 11 Norte 27 Norte 0 -- -- 18
2019-10-04 06:00:00 24.1 7 Nordeste 26 Norte 0 -- -- 18
2019-10-04 05:00:00 24.1 9 Norte 34 Norte 0 -- -- 19
2019-10-04 04:00:00 24 8 Norte 21 Noroeste 0 -- -- 19
2019-10-04 03:00:00 24.6 8 Norte 29 Noroeste 0 -- -- 15
2019-10-04 02:00:00 25 9 Norte 28 Noroeste 0 -- -- 16
2019-10-04 01:00:00 25.3 8 Norte 22 Nordeste 0 -- -- 16
2019-10-04 00:00:00 25.2 9 Norte 25 Norte 0 -- -- 17
2019-10-03 23:00:00 25.3 7 Norte 25 Norte 0 -- -- 15
2019-10-03 22:00:00 25.6 6 Nordeste 21 Noroeste 0 -- -- 15
2019-10-03 21:00:00 26.3 11 Norte 25 Norte 0 -- -- 14
2019-10-03 20:00:00 27.2 8 Norte 24 Noroeste 0 -- -- 13
2019-10-03 19:00:00 29.9 9 Norte 22 Nordeste 0 -- -- 11
2019-10-03 18:00:00 30.7 10 Nordeste 26 Este 0 -- -- 13
2019-10-03 17:00:00 32.1 8 Nordeste 26 Sudeste 0 -- -- 11
2019-10-03 16:00:00 32 11 Nordeste 30 Nordeste 0 -- -- 12
2019-10-03 15:00:00 33.4 9 Este 29 Nordeste 0 -- -- 11
2019-10-03 14:00:00 32.8 10 Este 31 Este 0 -- -- 13
2019-10-03 13:00:00 32.2 12 Este 21 Sudeste 0 -- -- 14
2019-10-03 12:00:00 32.3 8 Este 24 Nordeste 0 -- -- 13
2019-10-03 11:00:00 31.9 8 Nordeste 25 Este 0 -- -- 12
2019-10-03 10:00:00 30.7 9 Nordeste 24 Nordeste 0 -- -- 12
2019-10-03 09:00:00 26.7 5 Norte 16 Norte 0 -- -- 15
2019-10-03 08:00:00 24.2 6 Norte 15 Norte 0 -- -- 17
2019-10-03 07:00:00 23.5 5 Norte 14 Nordeste 0 -- -- 18
2019-10-03 06:00:00 23.3 5 Norte 14 Norte 0 -- -- 18
2019-10-03 05:00:00 22.8 4 Norte 14 Norte 0 -- -- 18
2019-10-03 04:00:00 24.3 3 Norte 17 Noroeste 0 -- -- 16
2019-10-03 03:00:00 25 7 Noroeste 20 Norte 0 -- -- 16
2019-10-03 02:00:00 25.9 8 Norte 21 Norte 0 -- -- 16
2019-10-03 01:00:00 23.7 6 Norte 14 Norte 0 -- -- 18
2019-10-03 00:00:00 23.8 8 Norte 17 Norte 0 -- -- 18
2019-10-02 23:00:00 23.3 6 Norte 10 Norte 0 -- -- 18
2019-10-02 22:00:00 23.5 7 Norte 9 Norte 0 -- -- 18
2019-10-02 21:00:00 24.6 7 Norte 10 Norte 0 -- -- 17
2019-10-02 20:00:00 27.8 4 Nordeste 13 Nordeste 0 -- -- 14
2019-10-02 19:00:00 30.1 4 Este 13 Este 0 -- -- 13
2019-10-02 18:00:00 30.7 7 Este 17 Sudeste 0 -- -- 12
2019-10-02 17:00:00 31.3 9 Este 21 Sudeste 0 -- -- 12
2019-10-02 16:00:00 31.4 10 Este 22 Este 0 -- -- 13
2019-10-02 15:00:00 32.1 8 Este 27 Sudeste 0 -- -- 12
2019-10-02 14:00:00 31.2 11 Este 22 Este 0 -- -- 13
2019-10-02 13:00:00 32 9 Este 22 Este 0 -- -- 14
2019-10-02 12:00:00 31.2 12 Este 22 Sudeste 0 -- -- 15
2019-10-02 11:00:00 30.6 9 Este 20 Este 0 -- -- 15
2019-10-02 10:00:00 31.4 6 Este 15 Este 0 -- -- 14
2019-10-02 09:00:00 24.6 5 Norte 10 Norte 0 -- -- 17
2019-10-02 08:00:00 22.9 6 Norte 11 Norte 0 -- -- 18
2019-10-02 07:00:00 23.1 6 Norte 13 Noroeste 0 -- -- 18
2019-10-02 06:00:00 23 6 Norte 10 Norte 0 -- -- 18
2019-10-02 05:00:00 22.8 8 Norte 12 Norte 0 -- -- 18
2019-10-02 04:00:00 22.9 8 Norte 11 Norte 0 -- -- 18
2019-10-02 03:00:00 23 8 Norte 10 Norte 0 -- -- 18
2019-10-02 02:00:00 23.1 8 Norte 10 Norte 0 -- -- 18
2019-10-02 01:00:00 23.2 8 Norte 11 Noroeste 0 -- -- 18
2019-10-02 00:00:00 23.5 8 Norte 12 Norte 0 -- -- 18
2019-10-01 23:00:00 23.8 7 Norte 13 Norte 0 -- -- 18
2019-10-01 22:00:00 24.1 7 Norte 13 Norte 0 -- -- 17
2019-10-01 21:00:00 24.8 7 Norte 10 Norte 0 -- -- 17
2019-10-01 20:00:00 27.7 5 Norte 13 Este 0 -- -- 14
2019-10-01 19:00:00 31.2 4 Nordeste 12 Nordeste 0 -- -- 12
2019-10-01 18:00:00 31.3 5 Este 16 Sudeste 0 -- -- 12
2019-10-01 17:00:00 30.6 8 Este 19 Este 0 -- -- 14
2019-10-01 16:00:00 30.4 11 Este 23 Este 0 -- -- 15
2019-10-01 15:00:00 30.9 12 Este 26 Este 0 -- -- 16
2019-10-01 14:00:00 30.6 10 Este 25 Este 0 -- -- 16
2019-10-01 13:00:00 30.3 11 Este 24 Este 0 -- -- 16
2019-10-01 12:00:00 30.7 9 Este 15 Sudeste 0 -- -- 16
2019-10-01 11:00:00 30.2 8 Sudeste 15 Sudeste 0 -- -- 15
2019-10-01 10:00:00 31 5 Nordeste 16 Este 0 -- -- 14
2019-10-01 09:00:00 24.2 5 Norte 12 Nordeste 0 -- -- 20
2019-10-01 08:00:00 21.9 6 Norte 10 Norte 0 -- -- 22
2019-10-01 07:00:00 22.1 6 Norte 10 Noroeste 0 -- -- 22
2019-10-01 06:00:00 22.2 7 Norte 11 Noroeste 0 -- -- 21
2019-10-01 05:00:00 23.1 5 Norte 12 Nordeste 0 -- -- 19
2019-10-01 04:00:00 24 5 Norte 18 Norte 0 -- -- 18
2019-10-01 03:00:00 24.2 7 Norte 15 Norte 0 -- -- 17
2019-10-01 02:00:00 26.5 6 Nordeste 18 Este 0 -- -- 15
2019-10-01 01:00:00 26 5 Norte 17 Nordeste 0 -- -- 16
2019-10-01 00:00:00 26.7 8 Este 25 Norte 0 -- -- 19
2019-09-30 23:00:00 25.9 8 Norte 24 Norte 0 -- -- 18
2019-09-30 22:00:00 26.5 10 Norte 27 Noroeste 0 -- -- 17
2019-09-30 21:00:00 26.5 9 Norte 21 Norte 0 -- -- 16
2019-09-30 20:00:00 27.8 5 Norte 15 Oeste 0 -- -- 16
2019-09-30 19:00:00 30.6 9 Sudeste 18 Sudeste 0 -- -- 21
2019-09-30 18:00:00 31.5 6 Este 15 Este 0 -- -- 13
2019-09-30 17:00:00 31.6 8 Este 14 Sudeste 0 -- -- 13
2019-09-30 16:00:00 31.9 8 Este 16 Este 0 -- -- 13
2019-09-30 15:00:00 32.9 10 Sudeste 17 Sudeste 0 -- -- 14
2019-09-30 14:00:00 32.1 8 Este 18 Este 0 -- -- 14
2019-09-30 13:00:00 32.2 10 Este 19 Sudeste 0 -- -- 13
2019-09-30 12:00:00 31 6 Este 14 Este 0 -- -- 16
2019-09-30 11:00:00 30.1 6 Este 13 Este 0 -- -- 17
2019-09-30 10:00:00 28.7 6 Este 11 Sudeste 0 -- -- 18
2019-09-30 09:00:00 21.7 5 Norte 10 Norte 0 -- -- 25
2019-09-30 08:00:00 20.3 8 Norte 10 Norte 0 -- -- 26
2019-09-30 07:00:00 20.5 6 Norte 10 Norte 0 -- -- 26
2019-09-30 06:00:00 20.2 7 Norte 10 Norte 0 -- -- 26
2019-09-30 05:00:00 20.3 7 Norte 9 Norte 0 -- -- 26
2019-09-30 04:00:00 20.6 8 Norte 9 Norte 0 -- -- 26
2019-09-30 03:00:00 21.1 7 Norte 9 Norte 0 -- -- 26
2019-09-30 02:00:00 21.2 7 Norte 8 Norte 0 -- -- 26
2019-09-30 01:00:00 21.3 6 Norte 9 Noroeste 0 -- -- 27
2019-09-30 00:00:00 22.4 6 Norte 9 Norte 0 -- -- 25
2019-09-29 23:00:00 23.6 4 Noroeste 12 Oeste 0 -- -- 23
2019-09-29 22:00:00 24.6 6 Noroeste 14 Noroeste 0 -- -- 22
2019-09-29 21:00:00 26.2 9 Oeste 20 Oeste 0 -- -- 19
2019-09-29 20:00:00 27.2 9 Oeste 17 Noroeste 0 -- -- 17
2019-09-29 19:00:00 29.4 8 Oeste 20 Oeste 0 -- -- 17
2019-09-29 18:00:00 30.4 6 Sudoeste 18 Sudoeste 0 -- -- 16
2019-09-29 17:00:00 30.8 8 Sudoeste 22 Sur 0 -- -- 17
2019-09-29 16:00:00 29.5 8 Sudoeste 20 Sudoeste 0 -- -- 21
2019-09-29 15:00:00 27.5 7 Sur 13 Sudeste 0 -- -- 35
2019-09-29 14:00:00 27.7 7 Sur 15 Sudeste 0 -- -- 31
2019-09-29 13:00:00 25.6 9 Sur 17 Sudeste 0 -- -- 31
2019-09-29 12:00:00 23.5 8 Sur 13 Sudeste 0 -- -- 49
2019-09-29 11:00:00 24.7 6 Sudeste 14 Sudeste 0 -- -- 39
2019-09-29 10:00:00 23.8 4 Sur 9 Sudeste 0 -- -- 32
2019-09-29 09:00:00 19.6 2 Este 8 Noroeste 0 -- -- 29
2019-09-29 08:00:00 18.5 4 Norte 10 Noroeste 0 -- -- 30
2019-09-29 07:00:00 18.5 4 Norte 8 Noroeste 0 -- -- 30
2019-09-29 06:00:00 18.3 3 Norte 6 Noroeste 0 -- -- 30
2019-09-29 05:00:00 18.9 4 Noroeste 9 Noroeste 0 -- -- 29
2019-09-29 04:00:00 22.4 8 Oeste 21 Oeste 0 -- -- 23
2019-09-29 03:00:00 22 6 Oeste 16 Oeste 0 -- -- 23
2019-09-29 02:00:00 21.8 8 Oeste 20 Oeste 0 -- -- 23
2019-09-29 01:00:00 20 9 Oeste 14 Oeste 0 -- -- 24
2019-09-29 00:00:00 17.7 7 Noroeste 17 Oeste 0 -- -- 30
2019-09-28 23:00:00 16.8 5 Norte 8 Noroeste 0 -- -- 35
2019-09-28 22:00:00 16.5 4 Norte 8 Norte 0 -- -- 38
2019-09-28 21:00:00 16.8 5 Norte 9 Nordeste 0 -- -- 43
2019-09-28 20:00:00 18.3 4 Noroeste 12 Sudeste 0 -- -- 73
2019-09-28 19:00:00 20.4 0 Calma 13 Sur 0 -- -- 77
2019-09-28 18:00:00 20 5 Sudoeste 12 Sur 0 -- -- 78
2019-09-28 17:00:00 17.7 6 Sudeste 14 Este 0 -- -- 90
2019-09-28 16:00:00 17.4 7 Sudeste 12 Este 0 -- -- 93
2019-09-28 15:00:00 17.2 4 Este 15 Sudeste 0 -- -- 94
2019-09-28 14:00:00 17.4 4 Este 18 Sudeste 0 -- -- 93
2019-09-28 13:00:00 18 9 Este 21 Sudeste 0 -- -- 88
2019-09-28 12:00:00 22.2 11 Sur 18 Sudeste 0 -- -- 65
2019-09-28 11:00:00 21.1 5 Sur 13 Sur 0 -- -- 67
2019-09-28 10:00:00 19.3 4 Sudeste 14 Sudeste 0 -- -- 72
2019-09-28 09:00:00 18.3 0 Calma 12 Noroeste 0 -- -- 44
2019-09-28 08:00:00 16.1 5 Noroeste 10 Noroeste 0 -- -- 30
2019-09-28 07:00:00 15.8 3 Noroeste 7 Noroeste 0 -- -- 32
2019-09-28 06:00:00 15.6 4 Norte 8 Norte 0 -- -- 35
2019-09-28 05:00:00 15.4 2 Norte 8 Noroeste 0 -- -- 37
2019-09-28 04:00:00 15.1 4 Norte 9 Sudeste 0 -- -- 44
2019-09-28 03:00:00 16.2 3 Norte 9 Noroeste 0 -- -- 36
2019-09-28 02:00:00 16.1 4 Nordeste 10 Noroeste 0 -- -- 34
2019-09-28 01:00:00 16.2 4 Norte 8 Noroeste 0 -- -- 34
2019-09-28 00:00:00 16.2 3 Norte 12 Nordeste 0 -- -- 36
2019-09-27 23:00:00 16.3 5 Nordeste 12 Este 0 -- -- 53
2019-09-27 22:00:00 16.3 4 Norte 8 Norte 0 -- -- 37
2019-09-27 21:00:00 16 6 Norte 8 Noroeste 0 -- -- 41
2019-09-27 20:00:00 18.1 3 Nordeste 14 Sudeste 0 -- -- 79
2019-09-27 19:00:00 21.2 6 Sur 17 Sur 0 -- -- 71
2019-09-27 18:00:00 21.2 9 Sur 15 Sur 0 -- -- 67
2019-09-27 17:00:00 22.1 7 Sur 16 Sur 0 -- -- 64
2019-09-27 16:00:00 22.4 9 Sur 21 Sur 0 -- -- 62
2019-09-27 15:00:00 23 10 Sudeste 17 Sudeste 0 -- -- 61
2019-09-27 14:00:00 21.6 9 Sur 20 Sudeste 0 -- -- 68
2019-09-27 13:00:00 19.8 8 Este 21 Este 0 -- -- 77
2019-09-27 12:00:00 21.6 9 Sur 19 Sudeste 0 -- -- 65
2019-09-27 11:00:00 21 8 Sudeste 15 Sur 0 -- -- 65
2019-09-27 10:00:00 20.9 5 Sur 14 Oeste 0 -- -- 58
2019-09-27 09:00:00 17.7 3 Nordeste 8 Noroeste 0 -- -- 40
2019-09-27 08:00:00 14.8 4 Norte 8 Norte 0 -- -- 44
2019-09-27 07:00:00 15.1 5 Norte 8 Norte 0 -- -- 45
2019-09-27 06:00:00 14.8 3 Norte 11 Noroeste 0 -- -- 41
2019-09-27 05:00:00 14.9 5 Norte 9 Norte 0 -- -- 41
2019-09-27 04:00:00 15.1 4 Norte 8 Noroeste 0 -- -- 44
2019-09-27 03:00:00 14.9 3 Norte 8 Noroeste 0 -- -- 49
2019-09-27 02:00:00 14.1 4 Noroeste 9 Norte 0 -- -- 50
2019-09-27 01:00:00 14 6 Norte 8 Norte 0 -- -- 55
2019-09-27 00:00:00 14.2 4 Norte 8 Noroeste 0 -- -- 66
2019-09-26 23:00:00 15.3 5 Norte 10 Norte 0 -- -- 62
2019-09-26 22:00:00 16.7 7 Norte 15 Norte 0 -- -- 62
2019-09-26 21:00:00 17.1 7 Norte 12 Noroeste 0 -- -- 61
2019-09-26 20:00:00 18.8 4 Noroeste 8 Oeste 0 -- -- 67
2019-09-26 19:00:00 19.4 2 Sudoeste 10 Sudeste 0 -- -- 82
2019-09-26 18:00:00 18.3 5 Sudeste 22 Sudeste 0 -- -- 91
2019-09-26 17:00:00 19.8 9 Sudeste 23 Sudeste 0 -- -- 78
2019-09-26 16:00:00 20 10 Sudeste 22 Sudeste 0 -- -- 74
2019-09-26 15:00:00 20.8 11 Sudeste 22 Sudeste 0 -- -- 76
2019-09-26 14:00:00 22.1 9 Sudeste 22 Sur 0 -- -- 64
2019-09-26 13:00:00 22.1 9 Sudeste 18 Este 0 -- -- 64
2019-09-26 12:00:00 21 10 Sudeste 19 Sudeste 0 -- -- 70
2019-09-26 11:00:00 20.8 7 Sudeste 17 Sudeste 0 -- -- 73
2019-09-26 10:00:00 17.9 9 Este 21 Sudeste 0 -- -- 86
2019-09-26 09:00:00 18.4 6 Sudeste 17 Norte 0 -- -- 76
2019-09-26 08:00:00 14.8 6 Norte 18 Norte 0 -- -- 58
2019-09-26 07:00:00 16 8 Norte 17 Norte 0 -- -- 62
2019-09-26 06:00:00 15.3 9 Norte 16 Norte 0 -- -- 55
2019-09-26 05:00:00 15.1 6 Norte 10 Noroeste 0 -- -- 43
2019-09-26 04:00:00 15 4 Norte 9 Norte 0 -- -- 44
2019-09-26 03:00:00 14.8 5 Norte 9 Norte 0 -- -- 52
2019-09-26 02:00:00 15.2 7 Norte 9 Noroeste 0 -- -- 51
2019-09-26 01:00:00 15.5 7 Norte 9 Norte 0 -- -- 53
2019-09-26 00:00:00 15.6 5 Noroeste 8 Norte 0 -- -- 49
2019-09-25 23:00:00 16.5 6 Norte 9 Norte 0 -- -- 49
2019-09-25 22:00:00 16.5 6 Norte 8 Norte 0 -- -- 36
2019-09-25 21:00:00 17.5 5 Norte 9 Noroeste 0 -- -- 35
2019-09-25 20:00:00 19.9 3 Norte 6 Nordeste 0 -- -- 40
2019-09-25 19:00:00 22.1 4 Sudeste 12 Este 0 -- -- 66
2019-09-25 18:00:00 22.9 8 Sudeste 19 Sur 0 -- -- 63
2019-09-25 17:00:00 23.8 9 Sudeste 18 Sudeste 0 -- -- 53
2019-09-25 16:00:00 22.1 8 Sur 15 Sudeste 0 -- -- 63
2019-09-25 15:00:00 22 8 Sudeste 18 Sudoeste 0 -- -- 64
2019-09-25 14:00:00 22.1 10 Sudeste 19 Sudeste 0 -- -- 64
2019-09-25 13:00:00 22.6 10 Sudeste 16 Sudeste 0 -- -- 60
2019-09-25 12:00:00 23 7 Sur 16 Sur 0 -- -- 56
2019-09-25 11:00:00 21.7 6 Sur 12 Sudeste 0 -- -- 58
2019-09-25 10:00:00 19.2 6 Sudeste 14 Norte 0 -- -- 70
2019-09-25 09:00:00 18.3 3 Este 18 Norte 0 -- -- 47
2019-09-25 08:00:00 14.6 9 Norte 19 Norte 0 -- -- 61
2019-09-25 07:00:00 13.2 8 Norte 17 Norte 0 -- -- 72
2019-09-25 06:00:00 15 9 Norte 19 Norte 0 -- -- 75
2019-09-25 05:00:00 14.9 10 Norte 24 Noroeste 0 -- -- 75
2019-09-25 04:00:00 13.2 8 Norte 12 Norte 0 -- -- 63
2019-09-25 03:00:00 13.3 8 Norte 11 Norte 0 -- -- 61
2019-09-25 02:00:00 13.4 7 Norte 14 Norte 0 -- -- 57
2019-09-25 01:00:00 14.4 7 Norte 21 Norte 0 -- -- 55
2019-09-25 00:00:00 14.9 10 Norte 19 Noroeste 0 -- -- 65
2019-09-24 23:00:00 12.4 3 Norte 8 Norte 0 -- -- 75
2019-09-24 22:00:00 13.7 4 Norte 17 Norte 0 -- -- 78
2019-09-24 21:00:00 15 5 Norte 19 Norte 0 -- -- 79
2019-09-24 20:00:00 16.2 6 Norte 26 Norte 0 -- -- 76
2019-09-24 19:00:00 19.4 6 Norte 26 Norte 0 -- -- 66
2019-09-24 18:00:00 20.1 8 Norte 20 Nordeste 0 -- -- 64
2019-09-24 17:00:00 20.1 8 Este 20 Oeste 0 -- -- 75
2019-09-24 16:00:00 20 9 Este 22 Este 0 -- -- 75
2019-09-24 15:00:00 21.1 10 Nordeste 27 Noroeste 0 -- -- 65
2019-09-24 14:00:00 21.9 9 Norte 31 Noroeste 0 -- -- 60
2019-09-24 13:00:00 21.3 11 Noroeste 25 Noroeste 0 -- -- 63
2019-09-24 12:00:00 20.6 8 Noroeste 22 Noroeste 0 -- -- 67
2019-09-24 11:00:00 19 9 Nordeste 25 Noroeste 0 -- -- 74
2019-09-24 10:00:00 17.9 6 Nordeste 20 Oeste 0 -- -- 78
2019-09-24 09:00:00 15.7 7 Norte 23 Norte 0 -- -- 84
2019-09-24 08:00:00 13.5 7 Norte 18 Norte 0 -- -- 91
2019-09-24 07:00:00 13.1 6 Norte 24 Norte 0 -- -- 87
2019-09-24 06:00:00 13.2 8 Noroeste 21 Noroeste 0 -- -- 91
2019-09-24 05:00:00 12.1 0 Calma 9 Noroeste 0 -- -- 90
2019-09-24 04:00:00 11.9 4 Noroeste 9 Noroeste 0 -- -- 91
2019-09-24 03:00:00 12.4 3 Nordeste 20 Nordeste 0 -- -- 88
2019-09-24 02:00:00 14.2 9 Nordeste 24 Norte 0 -- -- 90
2019-09-24 01:00:00 14.1 9 Norte 24 Norte 0 -- -- 87
2019-09-24 00:00:00 14.3 3 Norte 14 Noroeste 0 -- -- 83
2019-09-23 23:00:00 14.8 8 Noroeste 18 Oeste 0 -- -- 84
2019-09-23 22:00:00 15.3 8 Noroeste 23 Noroeste 0 -- -- 85
2019-09-23 21:00:00 16.1 10 Noroeste 19 Noroeste 0 -- -- 86
2019-09-23 20:00:00 17.7 4 Oeste 13 Noroeste 0 -- -- 79
2019-09-23 19:00:00 19.9 4 Sur 19 Noroeste 0 -- -- 78
2019-09-23 18:00:00 20.5 5 Sur 21 Noroeste 0 -- -- 75
2019-09-23 17:00:00 19.2 7 Este 17 Sudeste 0 -- -- 84
2019-09-23 16:00:00 20.9 8 Sudeste 17 Sudeste 0 -- -- 76
2019-09-23 15:00:00 21.5 7 Sudeste 18 Sur 0 -- -- 78
2019-09-23 14:00:00 20.9 9 Sur 18 Sudeste 0 -- -- 81
2019-09-23 13:00:00 20 8 Sudeste 18 Sudeste 0 -- -- 84
2019-09-23 12:00:00 18.9 6 Sudeste 13 Sudeste 0 -- -- 90
2019-09-23 11:00:00 19 4 Sur 15 Sudeste 0 -- -- 90
2019-09-23 10:00:00 19.7 5 Sudeste 10 Sur 0 -- -- 86
2019-09-23 09:00:00 17.4 7 Norte 24 Norte 0 -- -- 89
2019-09-23 08:00:00 15.6 6 Norte 19 Norte 0 -- -- 94
2019-09-23 07:00:00 15.7 6 Norte 20 Norte 0 -- -- 93
2019-09-23 06:00:00 15.1 6 Norte 15 Noroeste 0 -- -- 96
2019-09-23 05:00:00 15.7 0 Calma 17 Este 0 -- -- 95
2019-09-23 04:00:00 17 6 Nordeste 19 Este 0.2 -- -- 98
2019-09-23 03:00:00 17.2 6 Nordeste 21 Este 0.2 -- -- 99
2019-09-23 02:00:00 17.3 7 Nordeste 22 Este 0 -- -- 99
2019-09-23 01:00:00 17.8 5 Nordeste 13 Este 0 -- -- 94
2019-09-23 00:00:00 17.9 6 Norte 18 Norte 0 -- -- 88
2019-09-22 23:00:00 17.9 2 Este 10 Este 0 -- -- 94
2019-09-22 22:00:00 18.2 3 Este 14 Oeste 0 -- -- 93
2019-09-22 21:00:00 18.6 5 Este 19 Norte 0 -- -- 88
2019-09-22 20:00:00 19.4 6 Norte 22 Noroeste 0 -- -- 83
2019-09-22 19:00:00 22.1 4 Norte 16 Norte 0 -- -- 70
2019-09-22 18:00:00 21.7 8 Sudeste 13 Sudeste 0 -- -- 76
2019-09-22 17:00:00 22.3 6 Sur 16 Sudeste 0 -- -- 74
2019-09-22 16:00:00 23.1 10 Este 22 Este 0 -- -- 71
2019-09-22 15:00:00 22.4 12 Sudeste 21 Sudeste 0 -- -- 75
2019-09-22 14:00:00 20.4 9 Sudeste 21 Sudeste 0 -- -- 86
2019-09-22 13:00:00 21.6 12 Sudeste 21 Sudeste 0 -- -- 79
2019-09-22 12:00:00 21.6 12 Sudeste 22 Sudeste 0 -- -- 77
2019-09-22 11:00:00 21.2 11 Sudeste 18 Sudeste 0 -- -- 77
2019-09-22 10:00:00 20.9 8 Este 17 Nordeste 0 -- -- 75
2019-09-22 09:00:00 19.7 9 Este 18 Nordeste 0 -- -- 76
2019-09-22 08:00:00 17 4 Nordeste 14 Norte 0 -- -- 80
2019-09-22 07:00:00 17.5 5 Nordeste 17 Nordeste 0 -- -- 74
2019-09-22 06:00:00 16.8 3 Nordeste 13 Nordeste 0 -- -- 76
2019-09-22 05:00:00 16.7 4 Nordeste 16 Este 0 -- -- 77
2019-09-22 04:00:00 16.6 5 Nordeste 14 Noroeste 0 -- -- 78
2019-09-22 03:00:00 16.2 2 Este 13 Norte 0 -- -- 73
2019-09-22 02:00:00 15.5 3 Nordeste 10 Nordeste 0 -- -- 75
2019-09-22 01:00:00 14.9 4 Norte 6 Noroeste 0 -- -- 72
2019-09-22 00:00:00 15.2 3 Norte 6 Noroeste 0 -- -- 72
2019-09-21 23:00:00 15.6 3 Norte 8 Norte 0 -- -- 71
2019-09-21 22:00:00 15.8 4 Norte 9 Norte 0 -- -- 70
2019-09-21 21:00:00 16.3 4 Norte 7 Norte 0 -- -- 76
2019-09-21 20:00:00 18.4 3 Este 10 Nordeste 0 -- -- 79
2019-09-21 19:00:00 20 3 Sudoeste 11 Sur 0 -- -- 79
2019-09-21 18:00:00 20.1 8 Sur 18 Sudoeste 0 -- -- 78
2019-09-21 17:00:00 20.8 9 Sudeste 17 Sudeste 0 -- -- 75
2019-09-21 16:00:00 21.6 10 Sur 20 Sudeste 0 -- -- 72
2019-09-21 15:00:00 21.6 12 Sudeste 22 Sur 0 -- -- 73
2019-09-21 14:00:00 21.5 9 Sur 19 Sudeste 0 -- -- 73
2019-09-21 13:00:00 22 9 Sur 18 Sudeste 0 -- -- 70
2019-09-21 12:00:00 21.5 8 Sur 14 Sudeste 0 -- -- 70
2019-09-21 11:00:00 20.5 7 Sudeste 14 Sudeste 0 -- -- 72
2019-09-21 10:00:00 19.5 4 Sudeste 12 Sudeste 0 -- -- 73
2019-09-21 09:00:00 16.2 0 Calma 9 Este 0 -- -- 64
2019-09-21 08:00:00 12.8 5 Norte 8 Norte 0 -- -- 67
2019-09-21 07:00:00 12.5 6 Norte 8 Norte 0 -- -- 61
2019-09-21 06:00:00 12.5 4 Norte 9 Noroeste 0 -- -- 58
2019-09-21 05:00:00 12.7 4 Norte 10 Norte 0 -- -- 64
2019-09-21 04:00:00 12.9 5 Norte 8 Norte 0 -- -- 72
2019-09-21 03:00:00 12.8 5 Norte 8 Norte 0 -- -- 63
2019-09-21 02:00:00 13.8 3 Noroeste 10 Norte 0 -- -- 68
2019-09-21 01:00:00 13 5 Norte 10 Norte 0 -- -- 64
2019-09-21 00:00:00 13.6 5 Norte 9 Noroeste 0 -- -- 61
2019-09-20 23:00:00 14.3 6 Noroeste 11 Noroeste 0 -- -- 74
2019-09-20 22:00:00 14.5 5 Norte 8 Norte 0 -- -- 75
2019-09-20 21:00:00 16.2 4 Norte 9 Norte 0 -- -- 72
2019-09-20 20:00:00 18.8 0 Calma 12 Sur 0 -- -- 80
2019-09-20 19:00:00 20 7 Sudeste 18 Sur 0 -- -- 79
2019-09-20 18:00:00 21.9 8 Sur 16 Sur 0 -- -- 68
2019-09-20 17:00:00 21.3 8 Sudeste 22 Sudeste 0 -- -- 63
2019-09-20 16:00:00 21.6 11 Sudeste 18 Sudeste 0 -- -- 60
2019-09-20 15:00:00 22.2 10 Sudeste 19 Sudeste 0 -- -- 60
2019-09-20 14:00:00 21.7 9 Sudeste 20 Sur 0 -- -- 65
2019-09-20 13:00:00 21.9 11 Sudeste 20 Sudeste 0 -- -- 59
2019-09-20 12:00:00 21.6 9 Sudeste 18 Sur 0 -- -- 65
2019-09-20 11:00:00 20.4 11 Sudeste 18 Sudeste 0 -- -- 72
2019-09-20 10:00:00 20.3 6 Sudeste 14 Sudeste 0 -- -- 64
2019-09-20 09:00:00 19.6 5 Este 18 Noroeste 0 -- -- 57
2019-09-20 08:00:00 16.8 8 Norte 21 Norte 0 -- -- 64
2019-09-20 07:00:00 16.7 6 Nordeste 19 Norte 0 -- -- 64
2019-09-20 06:00:00 17 5 Norte 15 Norte 0 -- -- 61
2019-09-20 05:00:00 18.2 6 Norte 22 Norte 0 -- -- 58
2019-09-20 04:00:00 18.3 8 Norte 26 Norte 0 -- -- 57
2019-09-20 03:00:00 18.4 11 Norte 26 Norte 0 -- -- 55
2019-09-20 02:00:00 18.2 11 Norte 24 Norte 0 -- -- 40
2019-09-20 01:00:00 17.8 9 Noroeste 25 Norte 0 -- -- 44
2019-09-20 00:00:00 18.3 9 Norte 27 Norte 0 -- -- 42